Rolla, ND

3:43 AM CST on November 24, 2017 (GMT -0600)
Rolla

Weather History for K06D - January, 2013

Change the Weather History Date:

Monday, January 14, 2013

  Actual Average (KRUG) Record (KRUG)
Temperature  
Mean Temperature -8 °F -  
Max Temperature 3 °F 16 °F 36 °F (1973)
Min Temperature -18 °F -2 °F -32 °F (1972)
Degree Days  
Heating Degree Days 72    
Moisture  
Dew Point -9 °F    
Average Humidity 83    
Maximum Humidity 92    
Minimum Humidity 76    
Precipitation  
Precipitation 0.00 in - - ()
Sea Level Pressure  
Sea Level Pressure 30.09 in    
Wind  
Wind Speed 8 mph (SW)    
Max Wind Speed 14 mph    
Max Gust Speed -    
Visibility 10 miles    
Events Snow    
Averages and records for this station are not official NWS values.
T = Trace of Precipitation, MM = Missing Value Source: NWS Daily Summary

Daily Weather History Graph

Daily Weather History Graph

Search for Another Location

Airport or City:

Trip Planner

Search our weather history database for the weather conditions in past years. The results will help you decide how hot, cold, wet, or windy it might be!

Date:

Astronomy

Jan. 14, 2013 Rise Set
Actual Time 8:27 AM CST 5:08 PM CST
Civil Twilight 7:51 AM CST 5:44 PM CST
Nautical Twilight 7:11 AM CST 6:23 PM CST
Astronomical Twilight 6:34 AM CST 7:01 PM CST
Moon 9:40 AM CST (1/14) 9:19 PM CST (1/14)
Length of Visible Light 9h 53m
Length of Day
8h 41m
Waxing Crescent, 11% of the Moon is Illuminated
Jan 14
Waxing Crescent
Jan 18
First Quarter
Jan 26
Full
Feb 3
Last Quarter
Feb 10
New

Hourly Weather History & Observations

Time (CST) Temp. Windchill Dew Point Humidity Pressure Visibility Wind Dir Wind Speed Gust Speed Precip Events Conditions
12:15 AM 3.2 °F -14.6 °F -0.4 °F 85% 30.12 in 10.0 mi West 13.8 mph - N/A   Overcast
12:35 AM 3.2 °F -13.1 °F -0.4 °F 85% 30.11 in 10.0 mi West 11.5 mph - N/A   Overcast
1:15 AM 3.2 °F -13.9 °F -0.4 °F 85% 30.11 in 10.0 mi West 12.7 mph - N/A   Overcast
1:35 AM 1.4 °F -13.5 °F -0.4 °F 92% 30.11 in 10.0 mi West 9.2 mph - N/A   Overcast
1:55 AM -2.2 °F -18.0 °F -7.6 °F 78% 30.11 in 10.0 mi SW 9.2 mph - N/A   Overcast
2:15 AM -4.0 °F -19.0 °F -9.4 °F 78% 30.11 in 10.0 mi SW 8.1 mph - N/A Snow Light Snow
2:35 AM -5.8 °F -22.4 °F -9.4 °F 84% 30.12 in 10.0 mi WSW 9.2 mph - N/A Snow Light Snow
2:55 AM -7.6 °F -22.1 °F -11.2 °F 84% 30.13 in 10.0 mi WSW 6.9 mph - N/A   Clear
3:15 AM -9.4 °F -26.8 °F -13.0 °F 84% 30.13 in 10.0 mi SW 9.2 mph - N/A   Clear
3:35 AM -9.4 °F -27.9 °F -14.8 °F 77% 30.13 in 10.0 mi SW 10.4 mph - N/A   Clear
4:15 AM -11.2 °F -27.8 °F -16.6 °F 77% 30.13 in 10.0 mi West 8.1 mph - N/A   Clear
4:35 AM -13.0 °F -28.6 °F -16.6 °F 84% 30.12 in 10.0 mi West 6.9 mph - N/A   Clear
4:55 AM -13.0 °F -27.0 °F -16.6 °F 84% 30.12 in 10.0 mi West 5.8 mph - N/A   Clear
5:15 AM - - - N/A% 30.11 in 10.0 mi West 8.1 mph - N/A   Clear
5:35 AM -13.0 °F -27.0 °F -18.4 °F 77% 30.11 in 10.0 mi WSW 5.8 mph - N/A   Clear
5:55 AM -14.8 °F -30.8 °F -20.2 °F 77% 30.12 in 10.0 mi SW 6.9 mph - N/A   Clear
6:15 AM -16.6 °F -29.3 °F -20.2 °F 84% 30.12 in 10.0 mi WSW 4.6 mph - N/A   Scattered Clouds
6:35 AM -16.6 °F - -22.0 °F 76% 30.12 in 10.0 mi Calm Calm - N/A   Mostly Cloudy
6:55 AM -18.4 °F -28.9 °F -22.0 °F 84% 30.12 in 10.0 mi SW 3.5 mph - N/A   Mostly Cloudy
7:15 AM -16.6 °F -29.3 °F -20.2 °F 84% 30.12 in 10.0 mi SW 4.6 mph - N/A   Overcast
7:35 AM -16.6 °F -29.3 °F -20.2 °F 84% 30.13 in 10.0 mi SSW 4.6 mph - N/A   Overcast
7:55 AM -13.0 °F -25.1 °F -18.4 °F 77% 30.13 in 10.0 mi West 4.6 mph - N/A   Mostly Cloudy
8:15 AM -13.0 °F -22.7 °F -18.4 °F 77% 30.13 in 10.0 mi WSW 3.5 mph - N/A Snow Light Snow
8:35 AM -9.4 °F -22.7 °F -14.8 °F 77% 30.13 in 10.0 mi SW 5.8 mph - N/A   Overcast
8:55 AM -5.8 °F -18.4 °F -9.4 °F 84% 30.13 in 10.0 mi SW 5.8 mph - N/A   Overcast
9:15 AM -5.8 °F -16.7 °F -9.4 °F 84% 30.14 in 10.0 mi SW 4.6 mph - N/A   Mostly Cloudy
9:35 AM -4.0 °F - -7.6 °F 85% 30.14 in 10.0 mi Calm Calm - N/A   Mostly Cloudy
9:55 AM -4.0 °F -14.6 °F -7.6 °F 85% 30.14 in 10.0 mi SW 4.6 mph - N/A   Overcast
10:15 AM -4.0 °F -17.8 °F -7.6 °F 85% 30.13 in 10.0 mi WSW 6.9 mph - N/A   Mostly Cloudy
10:35 AM -4.0 °F -12.4 °F -7.6 °F 85% 30.13 in 10.0 mi SW 3.5 mph - N/A   Scattered Clouds
10:55 AM -0.4 °F -8.3 °F -4.0 °F 85% 30.14 in 10.0 mi WNW 3.5 mph - N/A   Scattered Clouds
11:15 AM -0.4 °F -12.0 °F -4.0 °F 85% 30.13 in 10.0 mi West 5.8 mph - N/A   Mostly Cloudy
11:35 AM -4.0 °F -17.8 °F -7.6 °F 85% 30.13 in 10.0 mi SSW 6.9 mph - N/A   Overcast
11:55 AM -2.2 °F -14.2 °F -7.6 °F 78% 30.12 in 10.0 mi SW 5.8 mph - N/A   Mostly Cloudy
12:15 PM -0.4 °F -12.0 °F -4.0 °F 85% 30.11 in 10.0 mi SSW 5.8 mph - N/A   Partly Cloudy
12:35 PM -2.2 °F -14.2 °F -4.0 °F 92% 30.10 in 10.0 mi SW 5.8 mph - N/A   Clear
12:55 PM -0.4 °F -15.7 °F -4.0 °F 85% 30.10 in 10.0 mi SW 9.2 mph - N/A   Clear
1:15 PM -0.4 °F -8.3 °F -2.2 °F 92% 30.09 in 10.0 mi West 3.5 mph - N/A   Clear
1:35 PM -0.4 °F -17.6 °F -4.0 °F 85% 30.08 in 10.0 mi SW 11.5 mph - N/A   Mostly Cloudy
1:55 PM -0.4 °F -15.7 °F -4.0 °F 85% 30.08 in 10.0 mi West 9.2 mph - N/A   Overcast
2:15 PM -0.4 °F -12.0 °F -4.0 °F 85% 30.09 in 10.0 mi North 5.8 mph - N/A   Overcast
2:35 PM -2.2 °F -12.5 °F -5.8 °F 85% 30.09 in 10.0 mi NE 4.6 mph - N/A   Overcast
2:55 PM -2.2 °F -14.2 °F -7.6 °F 78% 30.09 in 10.0 mi NE 5.8 mph - N/A   Mostly Cloudy
3:15 PM -2.2 °F -14.2 °F -7.6 °F 78% 30.09 in 10.0 mi ENE 5.8 mph - N/A   Clear
3:35 PM -2.2 °F -10.4 °F -7.6 °F 78% 30.09 in 10.0 mi East 3.5 mph - N/A   Clear
4:15 PM -4.0 °F - -7.6 °F 85% 30.09 in 10.0 mi Calm Calm - N/A   Scattered Clouds
4:35 PM -4.0 °F -14.6 °F -9.4 °F 78% 30.08 in 10.0 mi SSW 4.6 mph - N/A   Mostly Cloudy
4:55 PM -5.8 °F -14.5 °F -11.2 °F 77% 30.08 in 10.0 mi SSW 3.5 mph - N/A   Overcast
5:15 PM -7.6 °F -20.6 °F - N/A% 30.08 in 10.0 mi South 5.8 mph - N/A Snow Light Snow
5:35 PM -7.6 °F -20.6 °F -11.2 °F 84% 30.07 in 10.0 mi SSW 5.8 mph - N/A Snow Light Snow
5:55 PM -7.6 °F -22.1 °F -11.2 °F 84% 30.07 in 10.0 mi SSW 6.9 mph - N/A Snow Light Snow
6:15 PM -7.6 °F -22.1 °F -13.0 °F 77% 30.07 in 10.0 mi SSW 6.9 mph - N/A   Overcast
6:35 PM -5.8 °F -18.4 °F -11.2 °F 77% 30.07 in 10.0 mi WSW 5.8 mph - N/A   Overcast
6:55 PM -4.0 °F -14.6 °F -9.4 °F 78% 30.07 in 10.0 mi SW 4.6 mph - N/A   Overcast
7:15 PM -4.0 °F -20.2 °F -9.4 °F 78% 30.06 in 10.0 mi WSW 9.2 mph - N/A   Overcast
7:35 PM -2.2 °F -15.6 °F -7.6 °F 78% 30.06 in 10.0 mi West 6.9 mph - N/A   Overcast
7:55 PM -2.2 °F -12.5 °F -7.6 °F 78% 30.05 in 10.0 mi West 4.6 mph - N/A   Overcast
8:15 PM -0.4 °F -15.7 °F -5.8 °F 78% 30.05 in 10.0 mi West 9.2 mph - N/A   Overcast
8:35 PM -0.4 °F -17.6 °F -4.0 °F 85% 30.04 in 10.0 mi WSW 11.5 mph - N/A   Overcast
8:55 PM -0.4 °F -18.4 °F -2.2 °F 92% 30.04 in 10.0 mi SW 12.7 mph - N/A   Overcast
9:15 PM -0.4 °F -16.7 °F -2.2 °F 92% 30.03 in 10.0 mi WSW 10.4 mph - N/A   Overcast
9:35 PM -0.4 °F -16.7 °F -2.2 °F 92% 30.02 in 10.0 mi SW 10.4 mph - N/A   Overcast
9:55 PM -0.4 °F -17.6 °F -2.2 °F 92% 30.01 in 10.0 mi SW 11.5 mph - N/A   Overcast
10:15 PM -0.4 °F -17.6 °F -2.2 °F 92% 30.01 in 10.0 mi SW 11.5 mph - N/A   Overcast
10:35 PM -0.4 °F -17.6 °F -2.2 °F 92% 30.01 in 10.0 mi SW 11.5 mph - N/A   Overcast
10:55 PM -0.4 °F -16.7 °F -2.2 °F 92% 30.01 in 10.0 mi SW 10.4 mph - N/A   Overcast
11:15 PM -0.4 °F -14.7 °F -2.2 °F 92% 30.01 in 10.0 mi SW 8.1 mph - N/A   Overcast
11:35 PM -0.4 °F -13.4 °F -2.2 °F 92% 30.00 in 10.0 mi SW 6.9 mph - N/A   Overcast
11:55 PM -0.4 °F -13.4 °F -4.0 °F 85% 29.99 in 10.0 mi SSW 6.9 mph - N/A   Overcast